Date String (YYYY-MM-DD hh:mm:ss) UTC,Instrument flags,Ambient pressure (hPa),Sample flow (lpm),Bypass flow (lpm),Sample temperature (°C),Ambient temperature (°C),ASC tube jacket temperature (°C),LED temperature (°C),Box temperature (°C),Sample RH (%),Span deviation,Mass concentration (μg/m³),Mass concentration (μg/m³),Mass concentration (μg/m³)
DateTimeUTC,F1_M11,P_M11,Q1_M11,Q2_M11,T1_M11,T2_M11,T3_M11,T4_M11,T5_M11,U1_M11,ZSPAN_M11,X0_M11,X2_M11,X1_M11
2022-07-11 06:00:00,,0829.9,4.98,0.00,28.7,27.3,00.0,37.4,30.7,23.8,0000.0,0008.91,0004.42,0004.08
2022-07-11 06:01:00,,0829.9,5.01,0.00,28.7,27.5,00.0,37.5,30.7,23.9,0000.0,0008.92,0004.42,0004.09
2022-07-11 06:02:00,,0829.9,4.99,0.00,28.8,27.6,00.0,37.5,30.8,23.9,0000.0,0008.96,0004.46,0004.10
2022-07-11 06:03:00,,0829.8,5.01,0.00,28.8,27.8,00.0,37.5,30.9,24.0,0000.0,0008.93,0004.47,0004.11
2022-07-11 06:04:00,,0829.8,5.00,0.00,28.9,27.7,00.0,37.5,30.9,23.9,0000.0,0008.50,0004.44,0004.11
2022-07-11 06:05:00,,0829.8,5.00,0.00,28.9,27.1,00.0,37.5,30.8,24.2,0000.0,0008.98,0004.43,0004.10
2022-07-11 06:06:00,,0829.8,4.99,0.00,28.8,26.9,00.0,37.5,30.8,24.2,0000.0,0009.13,0004.42,0004.09
2022-07-11 06:07:00,,0829.8,5.01,0.00,28.8,26.9,00.0,37.5,30.7,24.1,0000.0,0009.55,0004.42,0004.07
2022-07-11 06:08:00,,0829.8,5.01,0.00,28.8,27.0,00.0,37.5,30.7,24.2,0000.0,0009.27,0004.40,0004.06
2022-07-11 06:09:00,,0829.7,5.00,0.00,28.8,27.2,00.0,37.5,30.7,24.3,0000.0,0009.21,0004.38,0004.05
2022-07-11 06:10:00,,0829.8,5.00,0.00,28.8,27.4,00.0,37.5,30.8,24.3,0000.0,0009.22,0004.39,0004.04
2022-07-11 06:11:00,,0829.8,5.00,0.00,28.9,27.5,00.0,37.6,30.8,24.3,0000.0,0008.82,0004.36,0004.03
2022-07-11 06:12:00,,0829.8,5.01,0.00,28.9,27.7,00.0,37.6,30.9,24.1,0000.0,0008.80,0004.35,0004.02
2022-07-11 06:13:00,,0829.7,4.98,0.00,29.0,27.7,00.0,37.6,31.0,24.3,0000.0,0008.86,0004.31,0004.00
2022-07-11 06:14:00,,0829.7,5.01,0.00,28.9,27.1,00.0,37.6,30.9,24.5,0000.0,0008.98,0004.33,0003.97
2022-07-11 06:15:00,,0829.6,4.98,0.00,28.9,26.9,00.0,37.5,30.8,24.7,0000.0,0008.61,0004.36,0003.95
2022-07-11 06:16:00,,0829.6,5.01,0.00,28.9,26.9,00.0,37.5,30.7,24.8,0000.0,0007.90,0004.32,0003.93
2022-07-11 06:17:00,,0829.6,4.99,0.00,28.8,27.0,00.0,37.6,30.7,25.0,0000.0,0007.77,0004.31,0003.90
2022-07-11 06:18:00,,0829.6,5.00,0.00,28.8,27.2,00.0,37.6,30.7,25.0,0000.0,0007.13,0004.29,0003.89
2022-07-11 06:19:00,,0829.6,5.00,0.00,28.9,27.3,00.0,37.6,30.8,24.9,0000.0,0007.23,0004.30,0003.88
2022-07-11 06:20:00,,0829.7,5.00,0.00,28.9,27.5,00.0,37.6,30.9,24.1,0000.0,0007.39,0004.34,0003.89
2022-07-11 06:21:00,,0829.8,5.00,0.00,28.9,27.7,00.0,37.6,30.9,23.7,0000.0,0007.40,0004.37,0003.90
2022-07-11 06:22:00,,0829.6,5.01,0.00,29.0,27.8,00.0,37.7,31.0,23.5,0000.0,0007.42,0004.39,0003.93
2022-07-11 06:23:00,,0829.6,5.00,0.00,29.0,27.6,00.0,37.6,31.0,23.7,0000.0,0007.45,0004.41,0003.93
2022-07-11 06:24:00,,0829.6,4.98,0.00,29.0,27.0,00.0,37.6,30.9,23.6,0000.0,0007.40,0004.43,0003.94
2022-07-11 06:25:00,,0829.6,5.01,0.00,28.9,26.9,00.0,37.6,30.8,24.0,0000.0,0007.22,0004.39,0003.95
2022-07-11 06:26:00,,0829.5,5.00,0.00,28.9,26.9,00.0,37.6,30.7,24.6,0000.0,0007.08,0004.36,0003.94
2022-07-11 06:27:00,,0829.5,5.00,0.00,28.9,27.1,00.0,37.6,30.7,24.9,0000.0,0007.22,0004.38,0003.94
2022-07-11 06:28:00,,0829.5,5.00,0.00,28.9,27.2,00.0,37.6,30.8,24.9,0000.0,0007.25,0004.39,0003.96
2022-07-11 06:29:00,,0829.5,5.00,0.00,28.9,27.4,00.0,37.7,30.8,24.6,0000.0,0007.41,0004.42,0003.98
2022-07-11 06:30:00,,0829.5,5.00,0.00,28.9,27.6,00.0,37.7,30.9,24.4,0000.0,0007.43,0004.42,0004.01
2022-07-11 06:31:00,,0829.6,5.00,0.00,29.0,27.7,00.0,37.7,30.9,24.2,0000.0,0007.30,0004.40,0004.02
2022-07-11 06:32:00,,0829.5,4.98,0.00,29.0,27.8,00.0,37.7,31.0,23.7,0000.0,0007.11,0004.39,0004.03
2022-07-11 06:33:00,,0829.5,5.00,0.00,29.0,27.7,00.0,37.7,31.0,23.4,0000.0,0007.14,0004.40,0004.04
2022-07-11 06:34:00,,0829.5,4.99,0.00,29.0,27.0,00.0,37.6,30.9,23.2,0000.0,0007.12,0004.40,0004.05
2022-07-11 06:35:00,,0829.5,5.01,0.00,29.0,26.8,00.0,37.6,30.8,23.4,0000.0,0007.19,0004.42,0004.06
2022-07-11 06:36:00,,0829.5,5.00,0.00,28.9,26.9,00.0,37.6,30.8,23.5,0000.0,0007.24,0004.43,0004.07
2022-07-11 06:37:00,,0829.5,5.00,0.00,28.9,27.0,00.0,37.6,30.7,23.6,0000.0,0007.23,0004.45,0004.09
2022-07-11 06:38:00,,0829.5,5.00,0.00,28.9,27.2,00.0,37.7,30.8,23.6,0000.0,0007.05,0004.43,0004.11
2022-07-11 06:39:00,,0829.5,5.01,0.00,28.9,27.4,00.0,37.7,30.8,23.6,0000.0,0006.89,0004.43,0004.13
2022-07-11 06:40:00,,0829.4,5.01,0.00,29.0,27.5,00.0,37.7,30.9,23.5,0000.0,0007.86,0004.46,0004.15
2022-07-11 06:41:00,,0829.4,4.98,0.00,29.0,27.7,00.0,37.7,30.9,23.4,0000.0,0008.05,0004.46,0004.15
2022-07-11 06:42:00,,0829.3,5.01,0.00,29.0,27.8,00.0,37.7,31.0,23.4,0000.0,0008.68,0004.47,0004.17
2022-07-11 06:43:00,,0829.3,5.01,0.00,29.1,27.9,00.0,37.8,31.1,23.4,0000.0,0008.75,0004.50,0004.18
2022-07-11 06:44:00,,0829.3,4.98,0.00,29.1,27.5,00.0,37.7,31.0,23.2,0000.0,0008.72,0004.49,0004.18
2022-07-11 06:45:00,,0829.5,5.01,0.00,29.0,27.0,00.0,37.7,30.9,23.2,0000.0,0008.76,0004.49,0004.19
2022-07-11 06:46:00,,0829.3,5.01,0.00,29.0,27.0,00.0,37.7,30.9,23.2,0000.0,0008.75,0004.48,0004.19
2022-07-11 06:47:00,,0829.3,5.00,0.00,29.0,27.0,00.0,37.7,30.8,23.2,0000.0,0008.71,0004.47,0004.21
2022-07-11 06:48:00,,0829.3,5.00,0.00,29.0,27.2,00.0,37.7,30.8,23.2,0000.0,0008.78,0004.48,0004.22
2022-07-11 06:49:00,,0829.2,5.00,0.00,29.0,27.3,00.0,37.7,30.8,23.2,0000.0,0009.04,0004.54,0004.23
2022-07-11 06:50:00,,0829.2,5.00,0.00,29.0,27.5,00.0,37.7,30.9,23.1,0000.0,0009.37,0004.57,0004.24
2022-07-11 06:51:00,,0829.2,5.00,0.00,29.0,27.6,00.0,37.8,30.9,23.0,0000.0,0008.57,0004.58,0004.25
2022-07-11 06:52:00,,0829.2,5.01,0.00,29.0,27.8,00.0,37.8,31.0,22.4,0000.0,0008.24,0004.58,0004.25
2022-07-11 06:53:00,,0829.2,5.01,0.00,29.1,27.9,00.0,37.8,31.0,21.9,0000.0,0007.70,0004.58,0004.22
2022-07-11 06:54:00,,0829.1,4.98,0.00,29.1,28.0,00.0,37.8,31.1,21.8,0000.0,0007.69,0004.56,0004.19
2022-07-11 06:55:00,,0829.2,5.01,0.00,29.1,27.7,00.0,37.8,31.1,21.8,0000.0,0007.59,0004.51,0004.16
2022-07-11 06:56:00,,0829.1,5.00,0.00,29.1,27.1,00.0,37.7,31.0,22.7,0000.0,0008.06,0004.49,0004.14
2022-07-11 06:57:00,,0829.0,5.01,0.00,29.1,26.9,00.0,37.7,30.9,22.9,0000.0,0008.15,0004.50,0004.14
2022-07-11 06:58:00,,0829.1,4.99,0.00,29.0,27.0,00.0,37.7,30.8,22.9,0000.0,0008.19,0004.51,0004.14
2022-07-11 06:59:00,,0829.1,5.00,0.00,29.0,27.1,00.0,37.7,30.8,22.6,0000.0,0008.18,0004.51,0004.13
